sat.trackr.live / text

‹ back to catalog

STARLINK-5048

NORAD 53911 · 2022-119AB

PAYLOAD ACTIVE UNKNOWN

§ Identity

Operator
Country
US
Launch date
2022-09-24
Launch site
AFETR
Launch vehicle
Mass (kg)
RCS (m²)

Purposes: comms

External: N2YO · Heavens-Above · Gunter

§ Orbital elements

Epoch: 2026-09-20T07:29:11.315328Z

Period
95.44 min
Inclination
53.1604°
Eccentricity
0.0001466
Mean motion
15.08836112 rev/d
Perigee alt
538.7 km
Apogee alt
540.8 km
Semi-major
6,917.9 km
B*
2.6851e-5
RAAN
159.9465°
Arg perigee
100.9419°
Mean anomaly
259.1737°
Rev number
22,120

§ Raw data

STARLINK-50481 53911U 22119AB  26263.31193652  .00000139  00000+0  26851-4 0  99912 53911  53.1604 159.9465 0001466 100.9419 259.1737 15.08836112221206

JSON: /api/v1/satellites/53911 · /tle

For live sub-satellite position, see the globe view (requires WebGL).

§ Visibility from observer

Set your observer location to see the next 7 days of passes ≥ 10°. The values pass through the URL so the page stays shareable.

No JS? Fill the form by hand. The geolocation button needs JavaScript.